When you browse on this site, cookies collect data to enhance your experience and personalize the content and advertising you see.
Visit our Privacy Policy to learn more. By continuing to use the site, you agree to this use of cookies and data.
  • In Hungary
  • List of Countries
  • For 7 days
  • Water Temperature
  • Weather Map
  • News
  • Weather Widgets
  • user-avatar
    Login

    Hourly Weather Lagodekhis

    Today, 17 November, Sunday

    Time Temperature Precipitation Wind Pressure Humidity
    00:00 -3°C° 0 mm 0 mps 631 mmHg 73%
    01:00 -3°C° 0 mm 0 mps 631 mmHg 70%
    02:00 -3°C° 0 mm 0 mps 630 mmHg 67%
    03:00 -2°C° 0 mm 1 mps 630 mmHg 68%
    04:00 -3°C° 0 mm 0 mps 630 mmHg 65%
    05:00 -3°C° 0 mm 0 mps 630 mmHg 61%
    06:00 -3°C° 0 mm 0 mps 630 mmHg 58%
    07:00 -2°C° 0 mm 0 mps 631 mmHg 56%
    08:00 0°C° 0 mm 0 mps 631 mmHg 54%
    09:00 +1°C° 0 mm 0 mps 632 mmHg 52%
    10:00 +3°C° 0 mm 1 mps 632 mmHg 53%
    11:00 +4°C° 0 mm 1 mps 631 mmHg 55%
    12:00 +4°C° 0 mm 1 mps 631 mmHg 57%
    13:00 +4°C° 0 mm 1 mps 631 mmHg 59%
    14:00 +4°C° 0 mm 1 mps 631 mmHg 61%
    15:00 +4°C° 0 mm 1 mps 631 mmHg 63%
    16:00 +3°C° 0 mm 1 mps 630 mmHg 64%
    17:00 +2°C° 0 mm 1 mps 630 mmHg 64%
    18:00 +1°C° 0 mm 1 mps 630 mmHg 65%
    19:00 0°C° 0 mm 1 mps 630 mmHg 64%
    20:00 0°C° 0 mm 1 mps 630 mmHg 62%
    21:00 -1°C° 0 mm 0 mps 630 mmHg 61%
    22:00 -1°C° 0 mm 0 mps 630 mmHg 60%
    23:00 -1°C° 0 mm 0 mps 630 mmHg 59%

    Tomorrow, 18 November, Monday

    Time Temperature Precipitation Wind Pressure Humidity
    00:00 -2°C° 0 mm 0 mps 630 mmHg 58%
    01:00 -1°C° 0 mm 1 mps 629 mmHg 57%
    02:00 -1°C° 0 mm 1 mps 629 mmHg 56%
    03:00 -1°C° 0 mm 1 mps 629 mmHg 55%
    04:00 -1°C° 0 mm 1 mps 629 mmHg 54%
    05:00 -1°C° 0 mm 1 mps 628 mmHg 53%
    06:00 -3°C° 0 mm 2 mps 628 mmHg 51%
    07:00 0°C° 0 mm 1 mps 629 mmHg 51%
    08:00 +2°C° 0 mm 1 mps 630 mmHg 51%
    09:00 +3°C° 0 mm 1 mps 630 mmHg 51%
    10:00 +4°C° 0 mm 1 mps 630 mmHg 50%
    11:00 +4°C° 0 mm 1 mps 630 mmHg 50%
    12:00 +5°C° 0 mm 1 mps 630 mmHg 49%
    13:00 +5°C° 0 mm 1 mps 630 mmHg 51%
    14:00 +5°C° 0 mm 1 mps 629 mmHg 54%
    15:00 +5°C° 0 mm 1 mps 629 mmHg 56%
    16:00 +3°C° 0 mm 1 mps 629 mmHg 56%
    17:00 +2°C° 0 mm 1 mps 628 mmHg 56%
    18:00 +1°C° 0 mm 1 mps 628 mmHg 56%
    19:00 +1°C° 0 mm 1 mps 628 mmHg 54%
    20:00 +1°C° 0 mm 1 mps 628 mmHg 52%
    21:00 0°C° 0 mm 1 mps 628 mmHg 50%
    22:00 0°C° 0 mm 1 mps 628 mmHg 49%
    23:00 0°C° 0 mm 1 mps 628 mmHg 48%

    Day after tomorrow, 19 November, Tuesday

    Time Temperature Precipitation Wind Pressure Humidity
    00:00 0°C° 0 mm 1 mps 627 mmHg 48%
    01:00 0°C° 0 mm 1 mps 627 mmHg 47%
    02:00 0°C° 0 mm 1 mps 627 mmHg 46%
    03:00 -2°C° 0 mm 2 mps 627 mmHg 45%
    04:00 -2°C° 0 mm 2 mps 627 mmHg 44%
    05:00 -2°C° 0 mm 2 mps 627 mmHg 44%
    06:00 -2°C° 0 mm 2 mps 627 mmHg 43%
    07:00 -1°C° 0 mm 2 mps 627 mmHg 43%
    08:00 +1°C° 0 mm 2 mps 628 mmHg 42%
    09:00 +3°C° 0 mm 2 mps 628 mmHg 41%
    10:00 +4°C° 0 mm 2 mps 628 mmHg 40%
    11:00 +5°C° 0 mm 2 mps 629 mmHg 39%
    12:00 +6°C° 0 mm 2 mps 629 mmHg 38%
    13:00 +6°C° 0 mm 2 mps 628 mmHg 40%
    14:00 +6°C° 0 mm 2 mps 628 mmHg 41%
    15:00 +6°C° 0 mm 2 mps 628 mmHg 42%
    16:00 +4°C° 0 mm 2 mps 627 mmHg 43%
    17:00 +3°C° 0 mm 2 mps 627 mmHg 44%
    18:00 0°C° 0 mm 3 mps 627 mmHg 44%
    19:00 0°C° 0 mm 3 mps 627 mmHg 43%
    20:00 +1°C° 0 mm 2 mps 627 mmHg 43%
    21:00 +1°C° 0 mm 2 mps 627 mmHg 42%
    22:00 -1°C° 0 mm 2 mps 627 mmHg 41%
    23:00 -1°C° 0 mm 2 mps 627 mmHg 41%

    20 November, Wednesday

    Time Temperature Precipitation Wind Pressure Humidity
    00:00 -1°C° 0 mm 2 mps 627 mmHg 41%
    01:00 -1°C° 0 mm 2 mps 627 mmHg 41%
    02:00 +1°C° 0 mm 1 mps 626 mmHg 41%
    03:00 0°C° 0 mm 1 mps 626 mmHg 41%
    04:00 -2°C° 0 mm 2 mps 626 mmHg 41%
    05:00 -2°C° 0 mm 2 mps 626 mmHg 40%
    06:00 -2°C° 0 mm 2 mps 626 mmHg 40%
    07:00 -1°C° 0 mm 2 mps 627 mmHg 40%
    08:00 +3°C° 0 mm 1 mps 627 mmHg 39%
    09:00 +4°C° 0 mm 1 mps 628 mmHg 38%
    10:00 +5°C° 0 mm 1 mps 628 mmHg 38%
    11:00 +5°C° 0 mm 1 mps 628 mmHg 38%
    12:00 +6°C° 0 mm 1 mps 628 mmHg 38%
    13:00 +6°C° 0 mm 1 mps 628 mmHg 43%
    14:00 +5°C° 0 mm 1 mps 627 mmHg 47%
    15:00 +5°C° 0 mm 1 mps 627 mmHg 51%
    16:00 +4°C° 0 mm 1 mps 627 mmHg 57%
    17:00 +3°C° 0 mm 1 mps 627 mmHg 62%
    18:00 +1°C° 0 mm 1 mps 627 mmHg 67%
    19:00 +1°C° 0 mm 1 mps 627 mmHg 70%
    20:00 0°C° 0 mm 1 mps 627 mmHg 72%
    21:00 0°C° 0 mm 1 mps 627 mmHg 75%
    22:00 0°C° 0 mm 1 mps 627 mmHg 76%
    23:00 -1°C° 0 mm 1 mps 627 mmHg 77%

    21 November, Thursday

    Time Temperature Precipitation Wind Pressure Humidity
    00:00 -1°C° 0 mm 1 mps 627 mmHg 77%
    01:00 -2°C° 0.1 mm 0 mps 627 mmHg 80%
    02:00 -2°C° 0.1 mm 0 mps 627 mmHg 82%
    03:00 -2°C° 0.1 mm 0 mps 627 mmHg 84%
    04:00 -2°C° 0.2 mm 0 mps 627 mmHg 85%
    05:00 -2°C° 0.2 mm 0 mps 627 mmHg 86%
    06:00 -2°C° 0.2 mm 0 mps 627 mmHg 87%
    07:00 -2°C° 0.2 mm 0 mps 627 mmHg 87%
    08:00 -1°C° 0.2 mm 1 mps 628 mmHg 88%
    09:00 -1°C° 0.2 mm 1 mps 628 mmHg 88%
    10:00 0°C° 0.5 mm 1 mps 628 mmHg 89%
    11:00 0°C° 0.5 mm 1 mps 628 mmHg 89%
    12:00 -2°C° 0.5 mm 2 mps 628 mmHg 90%
    13:00 0°C° 0.4 mm 1 mps 628 mmHg 90%
    14:00 0°C° 0.4 mm 1 mps 628 mmHg 91%
    15:00 0°C° 0.4 mm 1 mps 628 mmHg 91%
    16:00 -1°C° 0.3 mm 1 mps 629 mmHg 92%
    17:00 -1°C° 0.3 mm 1 mps 629 mmHg 93%
    18:00 -1°C° 0.3 mm 1 mps 630 mmHg 94%
    19:00 -1°C° 0.5 mm 1 mps 630 mmHg 94%
    20:00 -1°C° 0.5 mm 1 mps 630 mmHg 94%
    21:00 -2°C° 0.5 mm 1 mps 630 mmHg 94%
    22:00 -2°C° 0.7 mm 1 mps 630 mmHg 94%
    23:00 -4°C° 0.7 mm 2 mps 630 mmHg 95%

    22 November, Friday

    Time Temperature Precipitation Wind Pressure Humidity
    00:00 -4°C° 0.7 mm 2 mps 630 mmHg 95%
    01:00 -4°C° 0.4 mm 2 mps 631 mmHg 95%
    02:00 -5°C° 0.4 mm 2 mps 631 mmHg 96%
    03:00 -5°C° 0.4 mm 2 mps 631 mmHg 96%
    04:00 -5°C° 0.2 mm 2 mps 631 mmHg 96%
    05:00 -4°C° 0.2 mm 1 mps 631 mmHg 96%
    06:00 -4°C° 0.2 mm 1 mps 631 mmHg 96%
    07:00 -4°C° 0.1 mm 1 mps 631 mmHg 95%
    08:00 -4°C° 0.1 mm 1 mps 631 mmHg 94%
    09:00 -3°C° 0.1 mm 1 mps 632 mmHg 93%
    10:00 -3°C° 0.1 mm 1 mps 632 mmHg 92%
    11:00 -5°C° 0.1 mm 2 mps 632 mmHg 92%
    12:00 -4°C° 0.1 mm 2 mps 632 mmHg 92%
    13:00 -4°C° 0.1 mm 2 mps 631 mmHg 92%
    14:00 -2°C° 0.1 mm 1 mps 631 mmHg 92%
    15:00 -3°C° 0.1 mm 1 mps 631 mmHg 92%
    16:00 -3°C° 0 mm 1 mps 631 mmHg 93%
    17:00 -4°C° 0 mm 1 mps 631 mmHg 94%
    18:00 -6°C° 0 mm 1 mps 631 mmHg 95%
    19:00 -6°C° 0 mm 1 mps 631 mmHg 94%
    20:00 -6°C° 0 mm 1 mps 631 mmHg 94%
    21:00 -6°C° 0 mm 1 mps 631 mmHg 93%
    22:00 -6°C° 0.1 mm 1 mps 631 mmHg 94%
    23:00 -4°C° 0.1 mm 1 mps 631 mmHg 94%
    Show more